Regional Weather Roundup
Issued by NWS Burlington, VT

Home | Current Version | Previous Version | Text Only | Print | Product List | Glossary On
Versions: 1 2 3 4 5 6 7 8 9 10 11 12 13 14 15 16 17 18 19 20 21 22 23 24 25 26 27 28 29 30 31 32 33 34 35 36 37 38 39 40 41 42 43 44 45 46 47 48 49 50
000
ASUS41 KBTV 231630
RWRBTV
VERMONT REGIONAL WEATHER ROUNDUP
NATIONAL WEATHER SERVICE BURLINGTON VT
1200 PM EDT SUN APR 23 2017

NOTE: "FAIR" INDICATES FEW OR NO CLOUDS BELOW 12,000 FEET WITH NO
SIGNIFICANT WEATHER AND/OR OBSTRUCTIONS TO VISIBILITY.

* THESE REPORTS ARE NOT UNDER NWS QUALITY CONTROL AND/OR DO NOT
  REPORT WEATHER SUCH AS PRECIPITATION AND FOG.

VTZ001>019-231700-
_____VERMONT_____


CITY           SKY/WX    TMP DP  RH WIND       PRES   REMARKS
BURLINGTON     MOSUNNY   56  34  43 VRB5      30.08S
MONTPELIER     SUNNY     53  36  52 NW7       30.09F
MORRISVILLE    SUNNY     53  36  52 NE5       30.08F
ST. JOHNSBURY*   N/A     52  36  54 MISG      30.03F
LYNDONVILLE*   FAIR      53  35  50 S3        30.06S
MIDDLEBURY*    FAIR      55  32  42 W5        30.09S
RUTLAND*       SUNNY     55  34  45 NW6       30.08F HAZE
SPRINGFIELD    SUNNY     56  35  45 S3        30.07F
HIGHGATE*      FAIR      54  37  51 SW5       30.07F
NEWPORT*       FAIR      52  34  51 CALM      30.05F
BENNINGTON     SUNNY     55  34  45 CALM      30.08F
SUTTON*          N/A     52 N/A N/A MISG        N/A
ISLAND POND*     N/A     52 N/A N/A N10         N/A
MT. MANSFIELD*   N/A     37 N/A N/A W10         N/A  WCI  30

_____LAKE CHAMPLAIN_____


CITY           SKY/WX    TMP DP  RH WIND       PRES   REMARKS
BURTON ISLAND*   N/A     48  34  57 SW7         N/A
COLCHESTER RF*   N/A     46  36  66 S10         N/A

$$

NYZ007-026>031-035-052-083-087-231700-
_____NORTHERN NEW YORK_____


CITY           SKY/WX    TMP DP  RH WIND       PRES   REMARKS
PLATTSBURGH    SUNNY     52  35  52 SE14      30.07F
SARANAC LAKE   SUNNY     53  34  48 SW12      30.05S
MASSENA        SUNNY     59  38  45 SW16      30.07F
OGDENSBURG*    FAIR      60  36  40 SW14      30.06F
POTSDAM*       SUNNY     59  39  47 W15       30.06F
WATERTOWN      SUNNY     53  39  59 SW12      30.11F
FT DRUM        SUNNY     57  37  47 W12G18    30.08F
ALBANY         MOSUNNY   59  35  40 W6        30.11F
GLENS FALLS    SUNNY     55  37  50 VRB7      30.09F

$$
NHZ002-005-011-231700-
_____NEW HAMPSHIRE_____


CITY           SKY/WX    TMP DP  RH WIND       PRES   REMARKS
LEBANON        SUNNY     55  34  45 SE5       30.05F
KEENE          SUNNY     55  34  45 VRB3      30.08F
MT WASHINGTON  MOSUNNY   32  16  51 NW26        N/A  WCI  18
PLYMOUTH       FAIR      59  33  37 W6        30.03F
WHITEFIELD     SUNNY     53  34  48 CALM      30.04F

$$

_____REGIONAL QUEBEC LOCATIONS_____


CITY           SKY/WX    TMP DP  RH WIND       PRES   REMARKS
MONTREAL       PTSUNNY   54  37  54 SW16      30.04F
QUEBEC CITY    PTSUNNY   48  39  71 SW16      30.00F
SHERBROOKE     MOSUNNY   50  36  57 SW7       30.03F

_____REGIONAL ONTARIO LOCATIONS_____


CITY           SKY/WX    TMP DP  RH WIND       PRES   REMARKS
OTTAWA         PTSUNNY   61  37  41 S13G20    30.02F

______KEY______
VSB  - VISIBILITY IN MILES
WCI  - WIND CHILL INDEX
HX   - HEAT INDEX
$$
NNNN




USA.gov is the U.S. government's official web portal to all federal, state and local government web resources and services.